When you browse on this site, cookies collect data to enhance your experience and personalize the content and advertising you see.
Visit our Privacy Policy to learn more. By continuing to use the site, you agree to this use of cookies and data.
  • In Austria
  • List of Countries
  • For 7 days
  • Water Temperature
  • Satellite Maps
  • Weather Map
  • News
  • Weather Widgets
  • user-avatar
    Login

    Hourly Weather Chinsali

    Today, 17 December, Monday

    Time Temperature Precipitation Wind Pressure Humidity
    00:00 +20°C° 1.2 mm 1 mps 647 mmHg 91%
    01:00 +20°C° 1.2 mm 1 mps 647 mmHg 93%
    02:00 +20°C° 0 mm 1 mps 647 mmHg 93%
    03:00 +20°C° 1.6 mm 1 mps 647 mmHg 93%
    04:00 +19°C° 1.6 mm 1 mps 647 mmHg 93%
    05:00 +17°C° 1.6 mm 0 mps 647 mmHg 94%
    06:00 +20°C° 1.1 mm 1 mps 647 mmHg 90%
    07:00 +22°C° 1.1 mm 1 mps 648 mmHg 87%
    08:00 +23°C° 0 mm 1 mps 649 mmHg 84%
    09:00 +24°C° 1.5 mm 1 mps 649 mmHg 79%
    10:00 +26°C° 1.5 mm 1 mps 649 mmHg 74%
    11:00 +27°C° 1.5 mm 1 mps 648 mmHg 69%
    12:00 +27°C° 1.4 mm 1 mps 648 mmHg 68%
    13:00 +28°C° 1.4 mm 1 mps 647 mmHg 66%
    14:00 +28°C° 0 mm 1 mps 648 mmHg 66%
    15:00 +27°C° 1.5 mm 1 mps 647 mmHg 71%
    16:00 +26°C° 1.5 mm 1 mps 647 mmHg 76%
    17:00 +25°C° 1.5 mm 1 mps 646 mmHg 81%
    18:00 +24°C° 0.5 mm 1 mps 646 mmHg 84%
    19:00 +22°C° 0.5 mm 1 mps 646 mmHg 86%
    20:00 +21°C° 0.5 mm 1 mps 646 mmHg 88%
    21:00 +21°C° 0.1 mm 1 mps 646 mmHg 88%
    22:00 +20°C° 0.1 mm 1 mps 646 mmHg 89%
    23:00 +18°C° 0.1 mm 0 mps 646 mmHg 89%

    Tomorrow, 18 December, Tuesday

    Time Temperature Precipitation Wind Pressure Humidity
    00:00 +18°C° 0.4 mm 0 mps 646 mmHg 90%
    01:00 +18°C° 0.4 mm 0 mps 646 mmHg 91%
    02:00 +17°C° 0.4 mm 0 mps 646 mmHg 91%
    03:00 +17°C° 0.8 mm 0 mps 646 mmHg 92%
    04:00 +17°C° 0.8 mm 0 mps 646 mmHg 93%
    05:00 +17°C° 0.8 mm 0 mps 646 mmHg 94%
    06:00 +18°C° 0.8 mm 0 mps 647 mmHg 91%
    07:00 +20°C° 0.8 mm 0 mps 647 mmHg 88%
    08:00 +21°C° 0.8 mm 0 mps 648 mmHg 84%
    09:00 +24°C° 1.1 mm 1 mps 648 mmHg 79%
    10:00 +26°C° 1.1 mm 1 mps 648 mmHg 73%
    11:00 +27°C° 1.1 mm 1 mps 648 mmHg 67%
    12:00 +27°C° 1.9 mm 1 mps 647 mmHg 67%
    13:00 +28°C° 1.9 mm 1 mps 647 mmHg 67%
    14:00 +28°C° 1.9 mm 1 mps 646 mmHg 67%
    15:00 +27°C° 1.3 mm 1 mps 645 mmHg 71%
    16:00 +26°C° 1.3 mm 1 mps 645 mmHg 74%
    17:00 +25°C° 1.3 mm 1 mps 645 mmHg 78%
    18:00 +24°C° 1.4 mm 1 mps 645 mmHg 82%
    19:00 +22°C° 1.4 mm 1 mps 645 mmHg 86%
    20:00 +20°C° 1.4 mm 2 mps 645 mmHg 90%
    21:00 +21°C° 0.3 mm 1 mps 645 mmHg 90%
    22:00 +21°C° 0.3 mm 1 mps 646 mmHg 90%
    23:00 +20°C° 0.3 mm 1 mps 646 mmHg 91%

    Day after tomorrow, 19 December, Wednesday

    Time Temperature Precipitation Wind Pressure Humidity
    00:00 +20°C° 0.3 mm 1 mps 646 mmHg 91%
    01:00 +20°C° 0.3 mm 1 mps 645 mmHg 92%
    02:00 +20°C° 0.3 mm 1 mps 645 mmHg 93%
    03:00 +20°C° 0.2 mm 1 mps 645 mmHg 93%
    04:00 +19°C° 0.2 mm 1 mps 645 mmHg 93%
    05:00 +19°C° 0.2 mm 1 mps 645 mmHg 94%
    06:00 +20°C° 0.3 mm 1 mps 646 mmHg 92%
    07:00 +21°C° 0.3 mm 1 mps 646 mmHg 90%
    08:00 +22°C° 0.3 mm 1 mps 647 mmHg 89%
    09:00 +22°C° 1.1 mm 1 mps 647 mmHg 87%
    10:00 +23°C° 1.1 mm 2 mps 647 mmHg 86%
    11:00 +23°C° 1.1 mm 2 mps 647 mmHg 85%
    12:00 +23°C° 0.9 mm 2 mps 647 mmHg 83%
    13:00 +24°C° 0.9 mm 2 mps 646 mmHg 81%
    14:00 +24°C° 0.9 mm 2 mps 646 mmHg 80%
    15:00 +24°C° 0.4 mm 2 mps 645 mmHg 82%
    16:00 +24°C° 0.4 mm 2 mps 645 mmHg 84%
    17:00 +23°C° 0.4 mm 1 mps 645 mmHg 86%
    18:00 +22°C° 0.4 mm 1 mps 645 mmHg 89%
    19:00 +21°C° 0.4 mm 1 mps 645 mmHg 91%
    20:00 +20°C° 0.4 mm 1 mps 646 mmHg 94%
    21:00 +20°C° 0.4 mm 1 mps 646 mmHg 95%
    22:00 +20°C° 0.4 mm 1 mps 646 mmHg 96%
    23:00 +20°C° 0.4 mm 1 mps 646 mmHg 96%

    20 December, Thursday

    Time Temperature Precipitation Wind Pressure Humidity
    00:00 +19°C° 0.6 mm 1 mps 646 mmHg 96%
    01:00 +19°C° 0.6 mm 1 mps 645 mmHg 97%
    02:00 +19°C° 0.6 mm 1 mps 645 mmHg 97%
    03:00 +19°C° 0.9 mm 1 mps 645 mmHg 97%
    04:00 +19°C° 0.9 mm 1 mps 645 mmHg 97%
    05:00 +19°C° 0.9 mm 1 mps 645 mmHg 97%
    06:00 +19°C° 1 mm 1 mps 645 mmHg 96%
    07:00 +19°C° 1 mm 1 mps 646 mmHg 96%
    08:00 +20°C° 1 mm 1 mps 646 mmHg 95%
    09:00 +21°C° 1 mm 1 mps 646 mmHg 93%
    10:00 +21°C° 1 mm 1 mps 647 mmHg 90%
    11:00 +22°C° 1 mm 1 mps 647 mmHg 88%
    12:00 +23°C° 0.8 mm 2 mps 646 mmHg 86%
    13:00 +23°C° 0.8 mm 2 mps 646 mmHg 84%
    14:00 +24°C° 0.8 mm 2 mps 645 mmHg 82%
    15:00 +23°C° 0.4 mm 2 mps 645 mmHg 84%
    16:00 +23°C° 0.4 mm 2 mps 644 mmHg 87%
    17:00 +22°C° 0.4 mm 1 mps 644 mmHg 89%
    18:00 +22°C° 0.6 mm 1 mps 645 mmHg 91%
    19:00 +21°C° 0.6 mm 1 mps 645 mmHg 93%
    20:00 +20°C° 0.6 mm 1 mps 645 mmHg 95%
    21:00 +20°C° 2.2 mm 1 mps 646 mmHg 95%
    22:00 +20°C° 2.2 mm 1 mps 646 mmHg 96%
    23:00 +19°C° 2.2 mm 2 mps 646 mmHg 96%

    21 December, Friday

    Time Temperature Precipitation Wind Pressure Humidity
    00:00 +19°C° 2.1 mm 2 mps 646 mmHg 96%
    01:00 +19°C° 2.1 mm 2 mps 645 mmHg 96%
    02:00 +18°C° 2.1 mm 2 mps 645 mmHg 96%
    03:00 +18°C° 0.8 mm 2 mps 645 mmHg 96%
    04:00 +18°C° 0.8 mm 2 mps 645 mmHg 96%
    05:00 +18°C° 0.8 mm 2 mps 645 mmHg 97%
    06:00 +18°C° 0.5 mm 2 mps 646 mmHg 96%
    07:00 +19°C° 0.5 mm 2 mps 646 mmHg 96%
    08:00 +19°C° 0.5 mm 2 mps 647 mmHg 95%
    09:00 +19°C° 0.8 mm 3 mps 646 mmHg 94%
    10:00 +19°C° 0.8 mm 3 mps 646 mmHg 94%
    11:00 +19°C° 0.8 mm 3 mps 646 mmHg 93%
    12:00 +19°C° 0.5 mm 3 mps 645 mmHg 92%
    13:00 +19°C° 0.5 mm 3 mps 645 mmHg 92%
    14:00 +20°C° 0.5 mm 3 mps 644 mmHg 91%
    15:00 +20°C° 0.3 mm 3 mps 644 mmHg 90%
    16:00 +20°C° 0.3 mm 3 mps 644 mmHg 89%
    17:00 +20°C° 0.3 mm 3 mps 644 mmHg 88%
    18:00 +19°C° 0.6 mm 2 mps 645 mmHg 90%
    19:00 +19°C° 0.6 mm 2 mps 645 mmHg 93%
    20:00 +19°C° 0.6 mm 1 mps 645 mmHg 96%
    21:00 +18°C° 1.7 mm 2 mps 645 mmHg 96%
    22:00 +18°C° 1.7 mm 2 mps 646 mmHg 96%
    23:00 +18°C° 1.7 mm 2 mps 646 mmHg 96%

    22 December, Saturday

    Time Temperature Precipitation Wind Pressure Humidity
    00:00 +18°C° 1.1 mm 2 mps 645 mmHg 96%
    01:00 +18°C° 1.1 mm 3 mps 645 mmHg 96%
    02:00 +17°C° 1.1 mm 3 mps 644 mmHg 96%
    03:00 +17°C° 0.4 mm 3 mps 644 mmHg 96%
    04:00 +17°C° 0.4 mm 3 mps 645 mmHg 96%
    05:00 +17°C° 0.4 mm 2 mps 645 mmHg 96%
    06:00 +17°C° 0.1 mm 2 mps 645 mmHg 95%
    07:00 +18°C° 0.1 mm 2 mps 646 mmHg 94%
    08:00 +18°C° 0.1 mm 2 mps 646 mmHg 93%
    09:00 +19°C° 0 mm 3 mps 646 mmHg 89%
    10:00 +20°C° 0 mm 3 mps 646 mmHg 85%
    11:00 +21°C° 0 mm 3 mps 646 mmHg 80%
    12:00 +22°C° 0.1 mm 4 mps 646 mmHg 76%
    13:00 +23°C° 0.1 mm 4 mps 645 mmHg 71%
    14:00 +25°C° 0.1 mm 4 mps 645 mmHg 66%
    15:00 +25°C° 0.5 mm 4 mps 644 mmHg 72%
    16:00 +24°C° 0.5 mm 3 mps 644 mmHg 79%
    17:00 +23°C° 0.5 mm 2 mps 644 mmHg 85%
    18:00 +21°C° 0.5 mm 2 mps 644 mmHg 88%
    19:00 +20°C° 0.5 mm 2 mps 644 mmHg 92%
    20:00 +19°C° 0.5 mm 1 mps 645 mmHg 95%
    21:00 +19°C° 0.2 mm 1 mps 645 mmHg 96%
    22:00 +19°C° 0.2 mm 1 mps 645 mmHg 96%
    23:00 +19°C° 0.2 mm 1 mps 645 mmHg 96%
    Show more